Tracking 20241 objects as of 28-Jan-2020
HD Live streaming from Space Station
objects crossing your sky now

OPTUS B1 R/B(STAR 63F)

Track OPTUS B1 R/B(STAR 63F) now!


NORAD ID: 22089
Int'l Code: 1992-054C
Perigee: 388.2 km
Apogee: 36,420.8 km
Inclination: 23.5 °
Period: 646.8 minutes
Semi major axis: 24775 km
RCS: 6.8742 m2 (large)
Launch date: August 13, 1992
Source: Australia (AUS)
Launch site: Xichang Space Center, China (XSC)

Note: This is a ROCKET BODY
aabbcc
Your satellite tracking list
Your tracking list is empty




NASA's NSSDC Master Catalog

Two Line Element Set (TLE):
1 22089U 92054C   20027.94397813 -.00000113 +00000-0 +12456-3 0  9993
2 22089 023.5348 335.2782 7271812 300.1545 007.8097 02.22622759220837
Source of the keplerian elements: AFSPC